Tracking 31027 objects as of 19-Jul-2025
HD Live streaming from Space Station
objects crossing your sky now

DMSP 5D-2 F13 DEB

Track DMSP 5D-2 F13 DEB now!
10-day predictions


NORAD ID: 40678
Int'l Code: 1995-015FS
Perigee: 721.5 km
Apogee: 746.8 km
Inclination: 98.6 °
Period: 99.3 minutes
Semi major axis: 7105 km
RCS: Unknown
Launch date: March 24, 1995
Source: United States (US)
Launch site: AIR FORCE WESTERN TEST RANGE (AFWTR)

Note: This is SATELLITE DEBRIS
Your satellite tracking list
STARLINK-1243
Track 1 satellite(s)




NASA's NSSDC Master Catalog

Two Line Element Set (TLE):
1 40678U 95015FS  25198.90370171  .00006002  00000-0  15715-2 0  9997
2 40678  98.6003 240.0915 0017820 104.7981 255.5188 14.49581305531151
Source of the keplerian elements: AFSPC